Content
SEND FEEDBACK

Daily
Averages
Monthly
Summary
United Kingdom

LONDON, ENGLAND


Home > Europe > United Kingdom > England
Elevation: 61 meters     Latitude: 51 09N     Longitude: 000 11W

WEATHER
 
SELECT A DAY
Number of Records: 292,925;   Date Range: 7/1/96 - 7/28/14
 
SHARE

PRINT THIS DATA

[ ← Previous Day ]
WEATHER ALMANAC - 21 SEPTEMBER, 2013
[ Next Day → ]
[ °F ]   °C
Weather ElementAverageHighLow
Temperature14.1 °C18 °C (2:50 pm)9 °C (1:20 am)
Dewpoint12.4 °C16 °C (8:50 pm)8 °C (4:20 am)
Humidity90.3 %100 % (1:20 am)77 % (10:50 am)
Barometer1024.7 hPa1027.1 hPa (10:50 pm)1023 hPa (12:50 am)
Wind Speed7.2 km/h16.7 km/h (10:50 am)
Weather ElementAverage
Visibility7.9 km
Wind DirectionSSE (143.2 °)

Weather ElementTotal
Precipitation---
Heating Degree Days4.8 (Base 18.3)
Growing Degree Days3.5 (Base 10)
Averaged from 47 records on 21 September, 2013
WEATHER CONDITIONS BREAKOUT
WIND DIRECTION BREAKOUT
WEATHER BY HOUR - 21 SEPTEMBER, 2013
[ °F ]   °C
Local TimeTemperatureDewpointHumidityBarometerVisibilityWind DirectionWind SpeedGust SpeedPrecipitationEventsConditions
12:50 AM10 °C9 °C94 %1023 hPa6.9 kmCalm
1:20 AM9 °C9 °C100 %1023 hPa6 kmWest (260°)5.6 km/hPartly Cloudy
1:50 AM10 °C9 °C94 %1023 hPa5 kmCalmHaze
2:20 AM9 °C9 °C100 %1023 hPa8 kmCalm
2:50 AM9 °C9 °C100 %1023 hPa8 kmVariable5.6 km/h
3:20 AM9 °C9 °C100 %1023 hPa8 kmCalm
3:50 AM9 °C9 °C100 %1023 hPa9 kmCalm
4:20 AM9 °C8 °C93 %1023 hPa9 kmVariable3.7 km/h
4:50 AM9 °C9 °C100 %1023 hPa9 kmCalm
5:20 AM9 °C9 °C100 %1023 hPa9 kmCalm
5:50 AM9 °C9 °C100 %1023 hPa9 kmCalmScattered Clouds
6:20 AM10 °C9 °C94 %1024 hPa8 kmCalmPartly Cloudy
6:50 AM10 °C9 °C94 %1024 hPa9 kmESE (120°)3.7 km/hPartly Cloudy
7:20 AM10 °C9 °C94 %1024 hPa9 kmVariable3.7 km/h
7:50 AM10 °C10 °C100 %1024 hPaCalmClear
8:20 AM11 °C10 °C94 %1024 hPaCalmClear
8:50 AM13 °C11 °C88 %1024 hPaCalmClear
9:20 AM14 °C11 °C82 %1024 hPaVariable3.7 km/hClear
9:50 AM15 °C12 °C82 %1025.1 hPaSW (220°)9.3 km/hClear
10:20 AM15 °C12 °C82 %1025.1 hPa10 kmSW (220°)11.1 km/hScattered Clouds
10:50 AM16 °C12 °C77 %1025.1 hPa10 kmSW (220°)16.7 km/hScattered Clouds
11:20 AM16 °C12 °C77 %1025.1 hPa10 kmSW (230°)11.1 km/hOvercast
11:50 AM16 °C13 °C82 %1025.1 hPa10 kmSSW (210°)13 km/hOvercast
12:20 PM16 °C13 °C82 %1025.1 hPa10 kmSW (220°)11.1 km/hMostly Cloudy
12:50 PM17 °C13 °C77 %1025.1 hPa10 kmSSW (210°)11.1 km/hMostly Cloudy
1:20 PM17 °C13 °C77 %1025.1 hPa10 kmSSW (210°)13 km/hMostly Cloudy
1:50 PM17 °C14 °C82 %1025.1 hPa10 kmSSW (210°)14.8 km/hMostly Cloudy
2:20 PM17 °C14 °C82 %1025.1 hPa10 kmSW (220°)14.8 km/hMostly Cloudy
2:50 PM18 °C14 °C77 %1025.1 hPa10 kmSW (220°)13 km/hMostly Cloudy
3:20 PM18 °C15 °C83 %1025.1 hPa10 kmSW (220°)11.1 km/hMostly Cloudy
3:50 PM18 °C15 °C83 %1025.1 hPa10 kmSW (220°)11.1 km/hMostly Cloudy
4:20 PM17 °C15 °C88 %1025.1 hPa10 kmSSW (210°)13 km/hMostly Cloudy
4:50 PM17 °C15 °C88 %1025.1 hPa10 kmSSW (210°)13 km/hMostly Cloudy
5:20 PM17 °C15 °C88 %1025.1 hPa9 kmSSW (210°)11.1 km/hMostly Cloudy
5:50 PM17 °C15 °C88 %1025.1 hPa9 kmSW (230°)11.1 km/hMostly Cloudy
6:20 PM17 °C15 °C88 %1025.1 hPa9 kmSW (230°)11.1 km/hMostly Cloudy
6:50 PM17 °C15 °C88 %1025.1 hPa6.9 kmSW (220°)11.1 km/hMostly Cloudy
7:20 PM17 °C15 °C88 %1026.1 hPa6.9 kmSW (220°)9.3 km/hMostly Cloudy
7:50 PM17 °C15 °C88 %1026.1 hPa6 kmSW (220°)9.3 km/hMostly Cloudy
8:20 PM16 °C15 °C94 %1026.1 hPa5 kmSW (220°)7.4 km/hHaze
8:50 PM16 °C16 °C100 %1026.1 hPa5 kmSW (220°)11.1 km/hHaze
9:20 PM16 °C16 °C100 %1026.1 hPa4 kmSSW (210°)7.4 km/hHaze
9:50 PM17 °C16 °C94 %1026.1 hPa4 kmSW (220°)9.3 km/hHaze
10:20 PM17 °C16 °C94 %1026.1 hPa4 kmSW (220°)7.4 km/hMostly Cloudy
10:50 PM17 °C16 °C94 %1027.1 hPa3.5 kmSW (220°)5.6 km/hMostly Cloudy
11:20 PM17 °C16 °C94 %1027.1 hPa3.5 kmSW (230°)7.4 km/hHaze
11:50 PM16 °C16 °C100 %1027.1 hPa3.1 kmSW (230°)5.6 km/hOvercast
Hourly data recorded from EGKK, located 0 kilometers away from London, England







STORIES FROM OUR PARTNERS